Weather History for Pella, IA

Change the Weather History Date:

Saturday, March 30, 2013

  Actual Average (KOXV) Record (KOXV)
Temperature  
Mean Temperature 46 °F -  
Max Temperature 52 °F 55 °F 82 °F (1968)
Min Temperature 41 °F 34 °F 10 °F (1964)
Degree Days  
Heating Degree Days 18    
Moisture  
Dew Point 43 °F    
Average Humidity 85    
Maximum Humidity 97    
Minimum Humidity 58    
Precipitation  
Precipitation 0.05 in - - ()
Sea Level Pressure  
Sea Level Pressure 29.98 in    
Wind  
Wind Speed 7 mph (SSE)    
Max Wind Speed 16 mph    
Max Gust Speed -    
Visibility 7 miles    
Events Fog , Rain    
Averages and records for this station are not official NWS values.
T = Trace of Precipitation, MM = Missing Value Source: NWS Daily Summary

Daily Weather History Graph

Daily Weather History Graph

Search for Another Location

Airport:

Trip Planner

Search our weather history database for the weather conditions in past years. The results will help you decide how hot, cold, wet, or windy it might be!

Date:

Astronomy

Mar. 30, 2013 Rise Set
Actual Time 6:57 AM CDT 7:35 PM CDT
Civil Twilight 6:29 AM CDT 8:03 PM CDT
Nautical Twilight 5:57 AM CDT 8:35 PM CDT
Astronomical Twilight 5:23 AM CDT 9:10 PM CDT
Moon 11:45 PM CDT (3/30) 8:50 AM CDT (3/30)
Length of Visible Light 13h 33m
Length of Day
12h 37m
Waning Gibbous, 86% of the Moon is Illuminated
Mar 30
Waning Gibbous
Apr 2
Last Quarter
Apr 10
New
Apr 18
First Quarter
Apr 25
Full

Hourly Weather History & Observations

Time (CDT) Temp. Windchill Dew Point Humidity Pressure Visibility Wind Dir Wind Speed Gust Speed Precip Events Conditions
12:15 AM 46.4 °F 42.9 °F 32.4 °F 58% 30.15 in 10.0 mi SE 6.9 mph - N/A   Clear
12:35 AM 45.5 °F 41.3 °F 32.9 °F 61% 30.14 in 10.0 mi SE 8.1 mph - N/A   Clear
1:15 AM 45.7 °F 41.5 °F 33.1 °F 61% 30.12 in 10.0 mi SE 8.1 mph - N/A   Clear
1:35 AM 44.8 °F 41.0 °F 33.1 °F 64% 30.13 in 10.0 mi SE 6.9 mph - N/A   Clear
1:55 AM 44.1 °F 39.5 °F 33.3 °F 66% 30.13 in 10.0 mi SE 8.1 mph - N/A   Clear
2:15 AM 43.7 °F 39.1 °F 33.3 °F 67% 30.12 in 10.0 mi SSE 8.1 mph - N/A   Clear
2:35 AM 43.0 °F 39.5 °F 33.3 °F 69% 30.12 in 10.0 mi SSE 5.8 mph - N/A   Clear
2:55 AM 44.1 °F 39.0 °F 34.9 °F 70% 30.12 in 10.0 mi SSE 9.2 mph - N/A   Clear
3:15 AM 45.1 °F 39.9 °F 35.8 °F 70% 30.11 in 10.0 mi SSE 10.4 mph - N/A   Clear
3:35 AM 45.0 °F 40.1 °F 35.8 °F 70% 30.10 in 10.0 mi SSE 9.2 mph - N/A   Clear
3:55 AM 44.6 °F 39.7 °F 36.1 °F 72% 30.09 in 10.0 mi SSE 9.2 mph - N/A   Clear
4:15 AM 44.6 °F 40.2 °F 36.5 °F 73% 30.09 in 10.0 mi SE 8.1 mph - N/A   Clear
4:35 AM 44.6 °F 40.2 °F 36.7 °F 74% 30.08 in 10.0 mi SE 8.1 mph - N/A   Clear
4:55 AM 44.6 °F 39.2 °F 37.0 °F 75% 30.06 in 10.0 mi SE 10.4 mph - N/A   Clear
5:15 AM 45.3 °F 41.1 °F 37.4 °F 74% 30.05 in 10.0 mi SSE 8.1 mph - N/A   Clear
5:35 AM 44.8 °F 41.0 °F 37.6 °F 76% 30.06 in 10.0 mi South 6.9 mph - N/A   Clear
5:55 AM 45.0 °F 41.2 °F 37.9 °F 76% 30.05 in 10.0 mi SSE 6.9 mph - N/A   Clear
6:15 AM 45.5 °F 41.3 °F 38.7 °F 77% 30.03 in 10.0 mi SSE 8.1 mph - N/A   Clear
6:35 AM 45.9 °F 41.7 °F 38.8 °F 76% 30.04 in 10.0 mi SSE 8.1 mph - N/A   Clear
6:55 AM 46.4 °F 42.4 °F 39.2 °F 76% 30.03 in 10.0 mi SSE 8.1 mph - N/A   Clear
7:15 AM 46.8 °F - 39.6 °F 76% 30.03 in 10.0 mi SE 9.2 mph - N/A   Clear
7:35 AM 46.8 °F - 39.9 °F 77% 30.03 in 10.0 mi SE 8.1 mph - N/A   Light Drizzle
7:55 AM 46.6 °F - 40.3 °F 79% 30.04 in 7.0 mi SE 3.5 mph - N/A Rain Light Rain
8:15 AM 46.8 °F - 40.5 °F 79% 30.03 in 7.0 mi East 6.9 mph - N/A   Clear
8:35 AM 46.4 °F - 40.5 °F 80% 30.03 in 7.0 mi Calm Calm - N/A Rain Light Rain
8:55 AM 46.2 °F - 40.6 °F 81% 30.04 in 5.0 mi Calm Calm - N/A Rain Rain
9:15 AM 45.5 °F 44.2 °F 42.1 °F 88% 30.04 in 4.0 mi ESE 3.5 mph - N/A Rain Rain
9:35 AM 45.5 °F 42.5 °F 42.8 °F 90% 30.03 in 3.0 mi ESE 5.8 mph - 0.01 in Rain Rain
9:55 AM 45.5 °F 43.2 °F 43.2 °F 92% 30.02 in 2.0 mi SE 4.6 mph - 0.02 in Rain Light Rain
10:15 AM 45.5 °F 42.5 °F 43.7 °F 93% 30.01 in 1.8 mi ESE 5.8 mph - 0.01 in Rain Light Rain
10:35 AM 45.7 °F 42.0 °F 44.1 °F 94% 30.00 in 1.8 mi East 6.9 mph - 0.02 in Rain Light Rain
10:55 AM 46.2 °F 44.1 °F 44.6 °F 94% 30.00 in 2.0 mi East 4.6 mph - 0.02 in Rain Rain
11:15 AM 46.4 °F 41.9 °F 45.0 °F 95% 29.99 in 2.0 mi ESE 9.2 mph - N/A Rain Rain
11:35 AM 47.3 °F - 45.7 °F 94% 29.98 in 2.5 mi SE 10.4 mph - 0.01 in Rain Light Rain
11:55 AM 47.5 °F - 46.2 °F 95% 29.98 in 3.0 mi SSE 9.2 mph - 0.01 in   Overcast
12:15 PM 47.8 °F - 46.4 °F 95% 29.98 in 3.0 mi SSE 5.8 mph - N/A   Overcast
12:35 PM 48.7 °F - 47.3 °F 95% 29.97 in 4.0 mi SSE 5.8 mph - N/A   Mostly Cloudy
12:55 PM 49.1 °F - 47.3 °F 93% 29.96 in 4.0 mi SSE 6.9 mph - N/A Rain Light Rain
1:15 PM 49.6 °F - 47.8 °F 94% 29.94 in 4.0 mi SSE 9.2 mph - N/A   Light Drizzle
1:35 PM 51.8 °F - 49.8 °F 93% 29.94 in 5.0 mi SSE 8.1 mph - N/A   Scattered Clouds
1:55 PM 52.7 °F - 49.3 °F 88% 29.94 in 10.0 mi South 11.5 mph - N/A   Scattered Clouds
2:15 PM 52.7 °F - 48.2 °F 85% 29.93 in 10.0 mi South 16.1 mph - N/A   Mostly Cloudy
2:35 PM 52.7 °F - 48.2 °F 85% 29.93 in 10.0 mi South 11.5 mph - N/A   Overcast
2:55 PM 52.7 °F - 48.4 °F 85% 29.92 in 10.0 mi South 12.7 mph - N/A   Mostly Cloudy
3:15 PM 52.7 °F - 48.4 °F 85% 29.91 in 10.0 mi South 12.7 mph - N/A   Overcast
3:35 PM 52.3 °F - 48.4 °F 86% 29.91 in 10.0 mi South 9.2 mph - N/A   Overcast
3:55 PM 52.3 °F - 48.6 °F 87% 29.91 in 10.0 mi South 11.5 mph - N/A   Overcast
4:15 PM 52.7 °F - 48.9 °F 87% 29.89 in 10.0 mi South 9.2 mph - N/A   Overcast
4:35 PM 52.2 °F - 48.7 °F 88% 29.89 in 10.0 mi SSW 9.2 mph - N/A   Overcast
4:55 PM 52.3 °F - 49.3 °F 89% 29.89 in 10.0 mi SSW 10.4 mph - N/A   Overcast
5:15 PM 52.3 °F - 49.3 °F 89% 29.89 in 10.0 mi SSW 5.8 mph - N/A   Overcast
5:35 PM 52.7 °F - 49.6 °F 89% 29.88 in 10.0 mi SSW 8.1 mph - N/A   Overcast
5:55 PM 52.7 °F - 49.5 °F 89% 29.89 in 10.0 mi SSW 6.9 mph - N/A   Overcast
6:15 PM 52.3 °F - 49.5 °F 90% 29.89 in 10.0 mi SSW 5.8 mph - N/A   Overcast
6:35 PM 52.7 °F - 49.5 °F 89% 29.89 in 10.0 mi SSW 4.6 mph - N/A   Mostly Cloudy
6:55 PM 52.0 °F - 49.3 °F 90% 29.89 in 10.0 mi Calm Calm - N/A   Mostly Cloudy
7:15 PM 51.8 °F - 49.3 °F 91% 29.89 in 7.0 mi WSW 4.6 mph - N/A Rain Rain
7:35 PM 51.1 °F - 48.7 °F 92% 29.89 in 10.0 mi SSW 3.5 mph - N/A   Mostly Cloudy
7:55 PM 50.4 °F - 48.4 °F 93% 29.90 in 7.0 mi Calm Calm - N/A   Clear
8:15 PM 50.0 °F - 48.2 °F 94% 29.90 in 7.0 mi Calm Calm - N/A   Clear
8:35 PM 49.1 °F - 47.7 °F 95% 29.90 in 4.0 mi SW 3.5 mph - N/A   Clear
8:55 PM 49.3 °F - 48.2 °F 96% 29.91 in 4.0 mi Calm Calm - N/A   Clear
9:15 PM 49.1 °F - 47.8 °F 95% 29.91 in 2.5 mi Calm Calm - N/A   Mist
9:35 PM 44.8 °F - 43.7 °F 96% 29.91 in 0.2 mi Calm Calm - N/A Fog Fog
9:55 PM 44.1 °F - 43.2 °F 97% 29.91 in 0.2 mi Calm Calm - N/A Fog Fog
10:15 PM 43.2 °F - 42.1 °F 96% 29.91 in 0.2 mi Calm Calm - N/A Fog Fog
10:35 PM 42.6 °F - 41.5 °F 96% 29.91 in 0.2 mi Calm Calm - N/A Fog Fog
10:55 PM 42.4 °F - 41.4 °F 96% 29.91 in 0.2 mi Calm Calm - N/A Fog Fog
11:15 PM 42.4 °F 40.7 °F 41.5 °F 97% 29.91 in 0.2 mi SSW 3.5 mph - N/A Fog Fog
11:35 PM 41.9 °F - 41.0 °F 97% 29.91 in 0.2 mi Calm Calm - N/A Fog Fog
11:55 PM 41.5 °F 39.6 °F 40.6 °F 97% 29.91 in 0.2 mi West 3.5 mph - N/A Fog Fog